Regional Weather Roundup
Issued by NWS Memphis, TN

Home | Current Version | Previous Version | Text Only | Print | Product List | Glossary On
Versions: 1 2 3 4 5 6 7 8 9 10 11 12 13 14 15 16 17 18 19 20 21 22 23 24 25 26 27 28 29 30 31 32 33 34 35 36 37 38 39 40 41 42 43 44 45 46 47 48 49 50
000
ASUS44 KMEG 201010
RWRMEG
MEMPHIS CWA HOURLY WEATHER ROUNDUP
NATIONAL WEATHER SERVICE MEMPHIS TN
400 AM CST SAT DEC 20 2014

...WEST TENNESSEE...

CITY           SKY/WX    TMP DP  RH WIND       PRES   REMARKS
MEMPHIS INTL   MOCLDY    37  31  78 N5        30.23R WCI  33
NWS MEMPHIS      N/A     36 N/A N/A MISG        N/A
JACKSON        CLOUDY    35  31  85 NE3       30.23F
LEXINGTON      MOCLDY    30  28  93 N5        30.20F WCI  25
SAVANNAH       PTCLDY    32  30  93 CALM      30.22S
DYERSBURG      CLOUDY    37  21  52 NE7       30.25F WCI  32
UNION CITY     CLOUDY    34  30  86 NE5       30.23F WCI  30
PARIS          CLOUDY    30  27  86 NE5       30.23F WCI  25
HUNTINGDON     CLOUDY    33  26  76 NE5       30.23F WCI  28


...EASTERN ARKANSAS...

CITY           SKY/WX    TMP DP  RH WIND       PRES   REMARKS
JONESBORO      CLOUDY    38  34  85 NE6       30.25R WCI  33
WEST MEMPHIS   CLOUDY    38  36  92 N3        30.23S
BATESVILLE     CLOUDY    37  32  81 CALM      30.24F
NEWPORT        CLOUDY    38  36  92 NE7       30.26S WCI  33
WALNUT RIDGE   PTCLDY    37  34  87 N3        30.25S
BLYTHEVILLE    CLOUDY    38  33  82 NE6       30.25S WCI  33
SEARCY         CLOUDY    39  35  86 N5        30.26S
STUTTGART      CLOUDY    39  34  81 N7        30.23F WCI  34
PINE BLUFF     CLOUDY    39  37  92 N7        30.23S WCI  34
MONTICELLO     CLEAR     39  37  92 N3        30.21S FOG


...NORTH MISSISSIPPI...

CITY           SKY/WX    TMP DP  RH WIND       PRES   REMARKS
TUPELO         CLOUDY    37  33  85 NE6       30.21S WCI  32
OXFORD         CLEAR     32  32 100 CALM      30.22F FOG
OLIVE BRANCH   MOCLDY    32  32 100 CALM      30.22F
TUNICA         PTCLDY    34  32  93 N6        30.24F FOG     WCI  29
CLARKSDALE     CLEAR     36  36 100 N5        30.23S WCI  32
CORINTH        CLEAR     36  32  87 CALM      30.21S
GRENADA        CLOUDY    37  36  93 CALM      30.21F
GREENWOOD      CLOUDY    41  39  93 NE6       30.20F
COLUMBUS       MOCLDY    39  36  87 N3        30.19F
STARKVILLE     FAIR      39  37  93 CALM      30.19F FOG
GOLDEN TRIANGL CLOUDY    39  36  87 N8        30.18F WCI  34


...SOUTHEAST MISSOURI...

CITY           SKY/WX    TMP DP  RH WIND       PRES   REMARKS
WEST PLAINS    CLOUDY    34  31  88 E3        30.20F FOG
POPLAR BLUFF   CLOUDY    37  32  82 NE3       30.25R
CAPE GIRARDEAU CLOUDY    35  29  78 NE5       30.26S WCI  31


...NORTHWEST ALABAMA...

CITY           SKY/WX    TMP DP  RH WIND       PRES   REMARKS
MUSCLE SHOALS  MOCLDY    37  31  78 N3        30.21S


...MIDDLE TENNESSEE...

CITY           SKY/WX    TMP DP  RH WIND       PRES   REMARKS
NASHVILLE      CLEAR     33  26  75 N7        30.23S WCI  27
CLARKSVILLE    CLOUDY    32  27  81 N5        30.24S WCI  27


...WESTERN KENTUCKY...

CITY           SKY/WX    TMP DP  RH WIND       PRES   REMARKS
PADUCAH        CLOUDY    35  27  72 E5        30.25F WCI  31
FORT CAMPBELL  CLOUDY    32  27  82 N6        30.24S WCI  27


...CENTRAL ARKANSAS...

CITY           SKY/WX    TMP DP  RH WIND       PRES   REMARKS
LITTLE ROCK    CLOUDY    41  34  76 NE5       30.24F


SKY/WX REPORTED AS FAIR MEANS FEW OR NO CLOUDS BELOW
12 THOUSAND FEET.




USA.gov is the U.S. government's official web portal to all federal, state and local government web resources and services.